• In Czech Republic
  • List of Countries
  • For 7 days
  • Water Temperature
  • Satellite Maps
  • Weather Map
  • Weather Widgets
  • user-avatar
    Login

    Hourly Weather Pabna

    Today, 17 October, Tuesday

    Time Temperature Precipitation Wind Pressure Humidity
    00:00 +28°C° 0 mm 1 mps 752 mmHg 65%
    01:00 +28°C° 0 mm 1 mps 752 mmHg 66%
    02:00 +28°C° 0 mm 1 mps 752 mmHg 68%
    03:00 +27°C° 0 mm 1 mps 752 mmHg 70%
    04:00 +27°C° 0 mm 1 mps 752 mmHg 71%
    05:00 +27°C° 0 mm 2 mps 752 mmHg 73%
    06:00 +27°C° 0 mm 2 mps 753 mmHg 75%
    07:00 +28°C° 0 mm 2 mps 753 mmHg 72%
    08:00 +30°C° 0 mm 3 mps 753 mmHg 70%
    09:00 +31°C° 0 mm 3 mps 754 mmHg 67%
    10:00 +34°C° 0 mm 3 mps 753 mmHg 62%
    11:00 +35°C° 0 mm 3 mps 753 mmHg 56%
    12:00 +36°C° 0 mm 3 mps 752 mmHg 51%
    13:00 +36°C° 0 mm 3 mps 752 mmHg 49%
    14:00 +36°C° 0 mm 2 mps 751 mmHg 48%
    15:00 +36°C° 0 mm 2 mps 750 mmHg 46%
    16:00 +35°C° 0 mm 2 mps 750 mmHg 51%
    17:00 +33°C° 0 mm 1 mps 750 mmHg 56%
    18:00 +31°C° 0 mm 1 mps 750 mmHg 60%
    19:00 +31°C° 0 mm 2 mps 751 mmHg 63%
    20:00 +30°C° 0 mm 2 mps 751 mmHg 66%
    21:00 +30°C° 0 mm 2 mps 752 mmHg 70%
    22:00 +29°C° 0 mm 2 mps 752 mmHg 72%
    23:00 +29°C° 0 mm 2 mps 752 mmHg 74%

    Tomorrow, 18 October, Wednesday

    Time Temperature Precipitation Wind Pressure Humidity
    00:00 +29°C° 0 mm 2 mps 752 mmHg 77%
    01:00 +28°C° 0 mm 2 mps 752 mmHg 78%
    02:00 +28°C° 0 mm 2 mps 751 mmHg 79%
    03:00 +28°C° 0 mm 2 mps 751 mmHg 81%
    04:00 +28°C° 0 mm 2 mps 751 mmHg 81%
    05:00 +28°C° 0 mm 2 mps 751 mmHg 81%
    06:00 +28°C° 0 mm 2 mps 752 mmHg 81%
    07:00 +29°C° 0 mm 2 mps 752 mmHg 77%
    08:00 +30°C° 0 mm 2 mps 753 mmHg 72%
    09:00 +31°C° 0 mm 2 mps 754 mmHg 68%
    10:00 +34°C° 0 mm 2 mps 753 mmHg 63%
    11:00 +35°C° 0 mm 2 mps 753 mmHg 59%
    12:00 +36°C° 0 mm 2 mps 753 mmHg 55%
    13:00 +37°C° 0 mm 2 mps 752 mmHg 53%
    14:00 +37°C° 0 mm 2 mps 751 mmHg 52%
    15:00 +37°C° 0 mm 3 mps 750 mmHg 51%
    16:00 +36°C° 0.6 mm 3 mps 751 mmHg 59%
    17:00 +34°C° 0.6 mm 3 mps 751 mmHg 67%
    18:00 +31°C° 0.6 mm 3 mps 751 mmHg 75%
    19:00 +30°C° 0.7 mm 3 mps 752 mmHg 78%
    20:00 +30°C° 0.7 mm 3 mps 752 mmHg 81%
    21:00 +29°C° 0.7 mm 2 mps 753 mmHg 84%
    22:00 +29°C° 0 mm 2 mps 753 mmHg 84%
    23:00 +29°C° 0 mm 2 mps 753 mmHg 85%

    Day after tomorrow, 19 October, Thursday

    Time Temperature Precipitation Wind Pressure Humidity
    00:00 +29°C° 0 mm 1 mps 753 mmHg 85%
    01:00 +29°C° 0.1 mm 1 mps 753 mmHg 85%
    02:00 +28°C° 0.1 mm 1 mps 752 mmHg 85%
    03:00 +28°C° 0.1 mm 1 mps 752 mmHg 85%
    04:00 +28°C° 0.4 mm 2 mps 752 mmHg 86%
    05:00 +28°C° 0.4 mm 2 mps 752 mmHg 87%
    06:00 +28°C° 0.4 mm 3 mps 753 mmHg 88%
    07:00 +29°C° 0.2 mm 3 mps 753 mmHg 85%
    08:00 +29°C° 0.2 mm 4 mps 754 mmHg 82%
    09:00 +30°C° 0.2 mm 5 mps 755 mmHg 79%
    10:00 +32°C° 0.5 mm 5 mps 755 mmHg 77%
    11:00 +32°C° 0.5 mm 5 mps 754 mmHg 75%
    12:00 +33°C° 0.5 mm 5 mps 754 mmHg 73%
    13:00 +32°C° 1.2 mm 5 mps 753 mmHg 77%
    14:00 +30°C° 1.2 mm 5 mps 753 mmHg 81%
    15:00 +29°C° 1.2 mm 4 mps 752 mmHg 85%
    16:00 +28°C° 0.7 mm 4 mps 752 mmHg 87%
    17:00 +28°C° 0.7 mm 3 mps 752 mmHg 89%
    18:00 +27°C° 0.7 mm 3 mps 752 mmHg 91%
    19:00 +27°C° 0.5 mm 3 mps 753 mmHg 91%
    20:00 +27°C° 0.5 mm 4 mps 754 mmHg 91%
    21:00 +27°C° 0.5 mm 4 mps 754 mmHg 91%
    22:00 +27°C° 1.5 mm 4 mps 754 mmHg 92%
    23:00 +27°C° 1.5 mm 4 mps 754 mmHg 93%

    20 October, Friday

    Time Temperature Precipitation Wind Pressure Humidity
    00:00 +27°C° 1.5 mm 4 mps 754 mmHg 93%
    01:00 +27°C° 2.4 mm 4 mps 754 mmHg 93%
    02:00 +27°C° 2.4 mm 4 mps 753 mmHg 93%
    03:00 +27°C° 2.4 mm 4 mps 753 mmHg 93%
    04:00 +27°C° 1.9 mm 4 mps 753 mmHg 93%
    05:00 +27°C° 1.9 mm 5 mps 753 mmHg 93%
    06:00 +27°C° 1.9 mm 5 mps 753 mmHg 93%
    07:00 +27°C° 1.8 mm 5 mps 754 mmHg 93%
    08:00 +27°C° 1.8 mm 6 mps 755 mmHg 93%
    09:00 +27°C° 1.8 mm 6 mps 755 mmHg 92%
    10:00 +28°C° 0.8 mm 6 mps 755 mmHg 90%
    11:00 +29°C° 0.8 mm 6 mps 754 mmHg 88%
    12:00 +29°C° 0.8 mm 6 mps 754 mmHg 86%
    13:00 +29°C° 1.2 mm 5 mps 753 mmHg 85%
    14:00 +29°C° 1.2 mm 5 mps 753 mmHg 85%
    15:00 +29°C° 1.2 mm 5 mps 752 mmHg 84%
    16:00 +29°C° 1.5 mm 4 mps 752 mmHg 86%
    17:00 +28°C° 1.5 mm 4 mps 752 mmHg 88%
    18:00 +28°C° 1.5 mm 4 mps 753 mmHg 91%
    19:00 +28°C° 1.6 mm 4 mps 753 mmHg 91%
    20:00 +27°C° 1.6 mm 4 mps 754 mmHg 91%
    21:00 +27°C° 1.6 mm 4 mps 754 mmHg 91%
    22:00 +27°C° 0.1 mm 4 mps 754 mmHg 92%
    23:00 +27°C° 0.1 mm 4 mps 754 mmHg 92%

    21 October, Saturday

    Time Temperature Precipitation Wind Pressure Humidity
    00:00 +27°C° 0.1 mm 3 mps 753 mmHg 93%
    01:00 +27°C° 0.3 mm 3 mps 753 mmHg 94%
    02:00 +27°C° 0.3 mm 3 mps 753 mmHg 94%
    03:00 +27°C° 0.3 mm 3 mps 752 mmHg 94%
    04:00 +27°C° 0.3 mm 3 mps 753 mmHg 94%
    05:00 +27°C° 0.3 mm 3 mps 753 mmHg 93%
    06:00 +27°C° 0.3 mm 3 mps 753 mmHg 93%
    07:00 +28°C° 0.4 mm 3 mps 753 mmHg 88%
    08:00 +29°C° 0.4 mm 4 mps 754 mmHg 82%
    09:00 +30°C° 0.4 mm 4 mps 754 mmHg 77%
    10:00 +32°C° 0.9 mm 4 mps 754 mmHg 75%
    11:00 +32°C° 0.9 mm 5 mps 753 mmHg 72%
    12:00 +33°C° 0.9 mm 5 mps 752 mmHg 70%
    13:00 +33°C° 1.5 mm 5 mps 752 mmHg 72%
    14:00 +32°C° 1.5 mm 4 mps 751 mmHg 74%
    15:00 +32°C° 1.5 mm 4 mps 750 mmHg 76%
    16:00 +30°C° 1.9 mm 4 mps 751 mmHg 80%
    17:00 +29°C° 1.9 mm 4 mps 751 mmHg 83%
    18:00 +29°C° 1.9 mm 3 mps 751 mmHg 87%
    19:00 +28°C° 1.2 mm 3 mps 751 mmHg 87%
    20:00 +28°C° 1.2 mm 4 mps 752 mmHg 87%
    21:00 +28°C° 1.2 mm 4 mps 752 mmHg 88%
    22:00 +28°C° 0.9 mm 4 mps 752 mmHg 88%
    23:00 +28°C° 0.9 mm 4 mps 752 mmHg 89%

    22 October, Sunday

    Time Temperature Precipitation Wind Pressure Humidity
    00:00 +28°C° 0.9 mm 4 mps 752 mmHg 90%
    01:00 +27°C° 0.7 mm 3 mps 751 mmHg 91%
    02:00 +27°C° 0.7 mm 3 mps 751 mmHg 91%
    03:00 +27°C° 0.7 mm 3 mps 750 mmHg 92%
    04:00 +27°C° 0.3 mm 3 mps 750 mmHg 92%
    05:00 +27°C° 0.3 mm 3 mps 751 mmHg 92%
    06:00 +27°C° 0.3 mm 3 mps 751 mmHg 93%
    07:00 +28°C° 0.6 mm 4 mps 751 mmHg 89%
    08:00 +29°C° 0.6 mm 4 mps 752 mmHg 85%
    09:00 +30°C° 0.6 mm 4 mps 752 mmHg 82%
    10:00 +30°C° 1.8 mm 5 mps 752 mmHg 80%
    11:00 +32°C° 1.8 mm 5 mps 751 mmHg 78%
    12:00 +32°C° 1.8 mm 5 mps 751 mmHg 76%
    13:00 +32°C° 3.3 mm 5 mps 750 mmHg 78%
    14:00 +30°C° 3.3 mm 5 mps 750 mmHg 81%
    15:00 +30°C° 3.3 mm 5 mps 749 mmHg 83%
    16:00 +29°C° 1.6 mm 5 mps 749 mmHg 85%
    17:00 +28°C° 1.6 mm 4 mps 749 mmHg 87%
    18:00 +28°C° 1.6 mm 4 mps 750 mmHg 88%
    19:00 +28°C° 0.1 mm 4 mps 750 mmHg 89%
    20:00 +28°C° 0.1 mm 4 mps 751 mmHg 90%
    21:00 +28°C° 0.1 mm 4 mps 751 mmHg 90%
    22:00 +27°C° 0.6 mm 4 mps 751 mmHg 91%
    23:00 +27°C° 0.6 mm 4 mps 751 mmHg 91%
    Show more